GJ25W NWWD-NWWB

Flight info

Callsign GJ25W
Flight time 0h 14m
Altitude 5000
Route 2113S16453E DCT 2119S16460E DCT 2121S16510E DCT 2125S16514E
Aircraft BE58/L-SDFGRY/C

Departure

Time 2026-05-09 21:49
Airport Koné Airport (NWWD)

Arrival

Time 2026-05-09 22:03
Airport Bourail - Poé Airport (NWWB)
Time Latitude Longitude Altitude Speed Heading
2026-05-09 21:49 -21.29772 164.96400 5523 ft 192 kts 121°
2026-05-09 21:49 -21.30431 164.97650 5523 ft 193 kts 121°
2026-05-09 21:49 -21.31081 164.98883 5521 ft 184 kts 121°
2026-05-09 21:50 -21.31661 165.00060 5509 ft 174 kts 113°
2026-05-09 21:50 -21.31926 165.01303 5504 ft 169 kts 104°
2026-05-09 21:50 -21.32407 165.03692 5506 ft 161 kts 105°
2026-05-09 21:51 -21.32641 165.04856 5508 ft 158 kts 105°
2026-05-09 21:51 -21.32870 165.06007 5505 ft 157 kts 105°
2026-05-09 21:51 -21.33100 165.07154 5507 ft 156 kts 105°
2026-05-09 21:51 -21.33325 165.08274 5507 ft 155 kts 105°
2026-05-09 21:52 -21.33554 165.09405 5505 ft 155 kts 105°
2026-05-09 21:52 -21.33777 165.10529 5506 ft 154 kts 104°
2026-05-09 21:52 -21.33998 165.11651 5506 ft 154 kts 105°
2026-05-09 21:52 -21.34224 165.12771 5506 ft 154 kts 105°
2026-05-09 21:53 -21.34447 165.13893 5506 ft 154 kts 105°
2026-05-09 21:53 -21.34796 165.14953 5509 ft 149 kts 131°
2026-05-09 21:53 -21.35599 165.15616 5512 ft 148 kts 148°
2026-05-09 21:54 -21.37307 165.16841 5517 ft 147 kts 148°
2026-05-09 21:54 -21.38157 165.17452 5515 ft 147 kts 148°
2026-05-09 21:54 -21.39047 165.18001 5516 ft 149 kts 156°
2026-05-09 21:54 -21.39979 165.18473 5518 ft 148 kts 156°
2026-05-09 21:55 -21.40908 165.18946 5519 ft 148 kts 156°
2026-05-09 21:55 -21.41836 165.19419 5519 ft 148 kts 156°
2026-05-09 21:55 -21.42778 165.19900 5421 ft 154 kts 156°
2026-05-09 21:55 -21.43752 165.20395 5283 ft 159 kts 156°
2026-05-09 21:56 -21.44785 165.20897 5070 ft 167 kts 161°
2026-05-09 21:56 -21.45916 165.21267 4832 ft 172 kts 165°
2026-05-09 21:56 -21.47079 165.21614 4594 ft 175 kts 165°
2026-05-09 21:56 -21.48263 165.21962 4352 ft 178 kts 165°
2026-05-09 21:57 -21.49462 165.22310 4108 ft 179 kts 165°
2026-05-09 21:57 -21.50666 165.22654 3865 ft 179 kts 165°
2026-05-09 21:57 -21.51875 165.22998 3619 ft 180 kts 165°
2026-05-09 21:57 -21.53064 165.23332 3374 ft 179 kts 165°
2026-05-09 21:58 -21.54267 165.23666 3125 ft 179 kts 165°
2026-05-09 21:58 -21.55466 165.23997 2877 ft 178 kts 165°
2026-05-09 21:58 -21.56662 165.24324 2630 ft 177 kts 165°
2026-05-09 21:58 -21.57857 165.24648 2379 ft 177 kts 165°
2026-05-09 21:59 -21.59054 165.24971 2130 ft 178 kts 165°
2026-05-09 21:59 -21.60174 165.25486 1951 ft 175 kts 143°
2026-05-09 21:59 -21.60785 165.26595 1552 ft 181 kts 100°
2026-05-09 21:59 -21.60486 165.27903 1081 ft 192 kts 64°
2026-05-09 22:00 -21.59877 165.29088 1056 ft 169 kts 71°
2026-05-09 22:00 -21.59425 165.30201 1038 ft 156 kts 72°
2026-05-09 22:00 -21.59182 165.31281 991 ft 145 kts 92°
2026-05-09 22:00 -21.59156 165.32276 1010 ft 122 kts 98°
2026-05-09 22:01 -21.59203 165.33153 874 ft 112 kts 101°
2026-05-09 22:01 -21.59256 165.33951 783 ft 106 kts 105°
2026-05-09 22:01 -21.59434 165.34705 687 ft 101 kts 114°
2026-05-09 22:01 -21.59658 165.35392 632 ft 88 kts 115°
2026-05-09 22:02 -21.59842 165.35979 510 ft 81 kts 114°
2026-05-09 22:02 -21.60033 165.36612 467 ft 98 kts 113°
2026-05-09 22:02 -21.60226 165.37314 364 ft 94 kts 112°
2026-05-09 22:02 -21.60422 165.37965 242 ft 88 kts 114°
2026-05-09 22:03 -21.60612 165.38555 145 ft 83 kts 114°
2026-05-09 22:03 -21.60798 165.39175 52 ft 89 kts 112°
2026-05-09 22:03 -21.60977 165.39770 8 ft 74 kts 107°
2026-05-09 22:03 -21.61065 165.40096 5 ft 15 kts 97°
2026-05-09 22:04 -21.60994 165.40132 6 ft 11 kts 335°
2026-05-09 22:04 -21.60949 165.40097 7 ft 5 kts 52°
2026-05-09 22:04 -21.60966 165.40138 7 ft 0 kts 117°
2026-05-09 22:04 -21.60967 165.40139 7 ft 0 kts 117°